Time,TemperatureF,DewpointF,PressureIn,WindDirection,WindDirectionDegrees,WindSpeedMPH,WindSpeedGustMPH,Humidity,HourlyPrecipIn,Conditions,Clouds,dailyrainin,SoftwareType,DateUTC
2013-05-11 00:01:00,72.0,22.0,-100.00,North,359,13.0,17.0,15,-99.99,,,-99.99,,2013-05-11 00:01:00,
2013-05-11 00:11:00,70.0,24.0,-100.00,North,358,8.0,14.0,17,-99.99,,,-99.99,,2013-05-11 00:11:00,
2013-05-11 00:21:00,69.0,29.0,-100.00,NNW,345,8.0,11.0,22,-99.99,,,-99.99,,2013-05-11 00:21:00,
2013-05-11 00:32:00,69.0,31.0,-100.00,North,357,7.0,13.0,24,-99.99,,,-99.99,,2013-05-11 00:32:00,
2013-05-11 00:42:00,69.0,31.0,-100.00,North,357,7.0,13.0,24,-99.99,,,-99.99,,2013-05-11 00:42:00,
2013-05-11 00:51:00,69.0,27.0,-100.00,North,0,10.0,17.0,20,-99.99,,,-99.99,,2013-05-11 00:51:00,
2013-05-11 01:01:00,67.0,33.0,-100.00,North,353,9.0,14.0,28,-99.99,,,-99.99,,2013-05-11 01:01:00,
2013-05-11 01:11:00,67.0,29.0,-100.00,North,353,9.0,11.0,24,-99.99,,,-99.99,,2013-05-11 01:11:00,
2013-05-11 01:21:00,66.0,32.0,-100.00,North,351,3.0,9.0,28,-99.99,,,-99.99,,2013-05-11 01:21:00,
2013-05-11 01:31:00,63.0,30.0,-100.00,NW,311,4.0,6.0,27,-99.99,,,-99.99,,2013-05-11 01:31:00,
2013-05-11 01:42:00,63.0,30.0,-100.00,NW,311,4.0,6.0,27,-99.99,,,-99.99,,2013-05-11 01:42:00,
2013-05-11 01:52:00,65.0,30.0,-100.00,WNW,301,7.0,9.0,27,-99.99,,,-99.99,,2013-05-11 01:52:00,
2013-05-11 02:02:00,64.0,31.0,-100.00,West,278,7.0,8.0,28,-99.99,,,-99.99,,2013-05-11 02:02:00,
2013-05-11 02:11:00,60.0,32.0,-100.00,SSE,163,10.0,13.0,35,-99.99,,,-99.99,,2013-05-11 02:11:00,
2013-05-11 02:32:00,60.0,33.0,-100.00,South,169,4.0,5.0,35,-99.99,,,-99.99,,2013-05-11 02:32:00,
2013-05-11 02:42:00,59.0,33.0,-100.00,South,169,7.0,7.0,37,-99.99,,,-99.99,,2013-05-11 02:42:00,
2013-05-11 03:01:00,57.0,36.0,-100.00,SSE,160,8.0,9.0,45,-99.99,,,-99.99,,2013-05-11 03:01:00,
2013-05-11 03:11:00,58.0,34.0,-100.00,SSE,158,6.0,9.0,40,-99.99,,,-99.99,,2013-05-11 03:11:00,
2013-05-11 03:32:00,55.0,34.0,-100.00,SW,214,6.0,7.0,45,-99.99,,,-99.99,,2013-05-11 03:32:00,
2013-05-11 03:42:00,56.0,33.0,-100.00,South,172,5.0,6.0,42,-99.99,,,-99.99,,2013-05-11 03:42:00,
2013-05-11 04:02:00,53.0,33.0,-100.00,South,176,2.0,5.0,46,-99.99,,,-99.99,,2013-05-11 04:02:00,
2013-05-11 04:12:00,52.0,33.0,-100.00,SSW,193,4.0,5.0,47,-99.99,,,-99.99,,2013-05-11 04:12:00,
2013-05-11 04:32:00,49.0,35.0,-100.00,NE,43,2.0,4.0,57,-99.99,,,-99.99,,2013-05-11 04:32:00,
2013-05-11 04:43:00,48.0,35.0,-100.00,SE,128,3.0,4.0,60,-99.99,,,-99.99,,2013-05-11 04:43:00,
2013-05-11 05:02:00,49.0,34.0,-100.00,West,273,2.0,2.0,57,-99.99,,,-99.99,,2013-05-11 05:02:00,
2013-05-11 05:11:00,49.0,33.0,-100.00,SSE,147,1.0,2.0,55,-99.99,,,-99.99,,2013-05-11 05:11:00,
2013-05-11 05:32:00,45.0,35.0,-100.00,NW,304,2.0,2.0,69,-99.99,,,-99.99,,2013-05-11 05:32:00,
2013-05-11 06:02:00,44.0,34.0,-100.00,NNE,30,2.0,3.0,67,-99.99,,,-99.99,,2013-05-11 06:02:00,
2013-05-11 06:12:00,44.0,33.0,-100.00,SE,145,1.0,2.0,64,-99.99,,,-99.99,,2013-05-11 06:12:00,
2013-05-11 06:31:00,43.0,34.0,-100.00,SSE,158,1.0,6.0,68,-99.99,,,-99.99,,2013-05-11 06:31:00,
2013-05-11 06:42:00,43.0,33.0,-100.00,South,172,4.0,4.0,69,-99.99,,,-99.99,,2013-05-11 06:42:00,
2013-05-11 07:01:00,42.0,33.0,-100.00,South,178,0.0,2.0,71,-99.99,,,-99.99,,2013-05-11 07:01:00,
2013-05-11 07:11:00,40.0,33.0,-100.00,SE,134,3.0,4.0,74,-99.99,,,-99.99,,2013-05-11 07:11:00,
2013-05-11 07:31:00,40.0,32.0,-100.00,SSE,167,5.0,6.0,73,-99.99,,,-99.99,,2013-05-11 07:31:00,
2013-05-11 07:41:00,39.0,32.0,-100.00,ESE,109,2.0,4.0,75,-99.99,,,-99.99,,2013-05-11 07:41:00,
2013-05-11 08:01:00,40.0,33.0,-100.00,WNW,302,1.0,3.0,75,-99.99,,,-99.99,,2013-05-11 08:01:00,
2013-05-11 08:12:00,40.0,32.0,-100.00,SSW,197,1.0,2.0,74,-99.99,,,-99.99,,2013-05-11 08:12:00,
2013-05-11 08:31:00,39.0,32.0,-100.00,NNE,18,3.0,3.0,76,-99.99,,,-99.99,,2013-05-11 08:31:00,
2013-05-11 08:42:00,38.0,31.0,-100.00,SSE,153,5.0,6.0,78,-99.99,,,-99.99,,2013-05-11 08:42:00,
2013-05-11 09:01:00,37.0,32.0,-100.00,ESE,115,2.0,3.0,80,-99.99,,,-99.99,,2013-05-11 09:01:00,
2013-05-11 09:11:00,37.0,32.0,-100.00,SSE,156,2.0,3.0,81,-99.99,,,-99.99,,2013-05-11 09:11:00,
2013-05-11 09:21:00,37.0,32.0,-100.00,ENE,58,2.0,3.0,82,-99.99,,,-99.99,,2013-05-11 09:21:00,
2013-05-11 09:32:00,39.0,32.0,-100.00,SSE,156,0.0,4.0,76,-99.99,,,-99.99,,2013-05-11 09:32:00,
2013-05-11 09:42:00,35.0,30.0,-100.00,SE,132,5.0,5.0,82,-99.99,,,-99.99,,2013-05-11 09:42:00,
2013-05-11 10:03:00,37.0,32.0,-100.00,NNW,331,3.0,5.0,80,-99.99,,,-99.99,,2013-05-11 10:03:00,
2013-05-11 10:12:00,36.0,31.0,-100.00,SSE,165,5.0,6.0,79,-99.99,,,-99.99,,2013-05-11 10:12:00,
2013-05-11 10:22:00,36.0,31.0,-100.00,South,172,8.0,9.0,83,-99.99,,,-99.99,,2013-05-11 10:22:00,
2013-05-11 10:32:00,36.0,31.0,-100.00,ENE,71,3.0,5.0,81,-99.99,,,-99.99,,2013-05-11 10:32:00,
2013-05-11 10:42:00,35.0,30.0,-100.00,SSE,159,3.0,4.0,81,-99.99,,,-99.99,,2013-05-11 10:42:00,
2013-05-11 11:02:00,34.0,31.0,-100.00,East,92,3.0,4.0,87,-99.99,,,-99.99,,2013-05-11 11:02:00,
2013-05-11 11:11:00,35.0,30.0,-100.00,South,177,2.0,3.0,82,-99.99,,,-99.99,,2013-05-11 11:11:00,
2013-05-11 11:21:00,35.0,30.0,-100.00,South,169,2.0,2.0,82,-99.99,,,-99.99,,2013-05-11 11:21:00,
2013-05-11 11:31:00,34.0,30.0,-100.00,South,187,2.0,3.0,85,-99.99,,,-99.99,,2013-05-11 11:31:00,
2013-05-11 11:42:00,33.0,29.0,-100.00,SE,131,3.0,5.0,85,-99.99,,,-99.99,,2013-05-11 11:42:00,
2013-05-11 12:01:00,33.0,30.0,-100.00,SSE,165,6.0,7.0,88,-99.99,,,-99.99,,2013-05-11 12:01:00,
2013-05-11 12:11:00,34.0,30.0,-100.00,SSE,156,4.0,8.0,85,-99.99,,,-99.99,,2013-05-11 12:11:00,
2013-05-11 12:32:00,34.0,30.0,-100.00,East,90,1.0,2.0,86,-99.99,,,-99.99,,2013-05-11 12:32:00,
2013-05-11 12:42:00,33.0,30.0,-100.00,SE,143,1.0,3.0,85,-99.99,,,-99.99,,2013-05-11 12:42:00,
2013-05-11 13:01:00,33.0,30.0,-100.00,South,177,0.0,4.0,87,-99.99,,,-99.99,,2013-05-11 13:01:00,
2013-05-11 13:11:00,33.0,30.0,-100.00,WSW,238,1.0,2.0,86,-99.99,,,-99.99,,2013-05-11 13:11:00,
2013-05-11 13:31:00,34.0,30.0,-100.00,SE,140,2.0,3.0,83,-99.99,,,-99.99,,2013-05-11 13:31:00,
2013-05-11 13:41:00,34.0,30.0,-100.00,SSE,156,5.0,6.0,87,-99.99,,,-99.99,,2013-05-11 13:41:00,
2013-05-11 14:02:00,38.0,32.0,-100.00,SE,143,4.0,5.0,79,-99.99,,,-99.99,,2013-05-11 14:02:00,
2013-05-11 14:11:00,40.0,33.0,-100.00,SE,139,1.0,2.0,76,-99.99,,,-99.99,,2013-05-11 14:11:00,
2013-05-11 14:32:00,42.0,33.0,-100.00,SSE,163,6.0,6.0,69,-99.99,,,-99.99,,2013-05-11 14:32:00,
2013-05-11 14:41:00,45.0,33.0,-100.00,SE,142,4.0,5.0,63,-99.99,,,-99.99,,2013-05-11 14:41:00,
2013-05-11 15:01:00,49.0,35.0,-100.00,NE,48,0.0,2.0,59,-99.99,,,-99.99,,2013-05-11 15:01:00,
2013-05-11 15:11:00,49.0,36.0,-100.00,North,5,2.0,3.0,60,-99.99,,,-99.99,,2013-05-11 15:11:00,
2013-05-11 15:21:00,50.0,37.0,-100.00,NNE,27,1.0,2.0,59,-99.99,,,-99.99,,2013-05-11 15:21:00,
2013-05-11 15:32:00,52.0,38.0,-100.00,NNE,27,1.0,4.0,59,-99.99,,,-99.99,,2013-05-11 15:32:00,
2013-05-11 16:02:00,56.0,37.0,-100.00,NNW,335,2.0,3.0,48,-99.99,,,-99.99,,2013-05-11 16:02:00,
2013-05-11 16:12:00,57.0,34.0,-100.00,NNW,332,2.0,3.0,42,-99.99,,,-99.99,,2013-05-11 16:12:00,
2013-05-11 16:22:00,58.0,32.0,-100.00,NNW,343,4.0,4.0,37,-99.99,,,-99.99,,2013-05-11 16:22:00,
2013-05-11 16:32:00,58.0,37.0,-100.00,NNE,12,2.0,4.0,44,-99.99,,,-99.99,,2013-05-11 16:32:00,
2013-05-11 16:42:00,60.0,35.0,-100.00,North,4,2.0,4.0,40,-99.99,,,-99.99,,2013-05-11 16:42:00,
2013-05-11 16:52:00,60.0,35.0,-100.00,NW,317,4.0,5.0,37,-99.99,,,-99.99,,2013-05-11 16:52:00,
2013-05-11 17:02:00,62.0,33.0,-100.00,NNW,342,1.0,4.0,33,-99.99,,,-99.99,,2013-05-11 17:02:00,
2013-05-11 17:12:00,63.0,32.0,-100.00,WSW,238,1.0,4.0,30,-99.99,,,-99.99,,2013-05-11 17:12:00,
2013-05-11 17:22:00,64.0,34.0,-100.00,NNE,17,2.0,5.0,32,-99.99,,,-99.99,,2013-05-11 17:22:00,
2013-05-11 17:31:00,64.0,34.0,-100.00,NNE,17,2.0,5.0,32,-99.99,,,-99.99,,2013-05-11 17:31:00,
2013-05-11 17:41:00,68.0,29.0,-100.00,SSW,192,3.0,4.0,22,-99.99,,,-99.99,,2013-05-11 17:41:00,
2013-05-11 17:52:00,71.0,30.0,-100.00,East,86,1.0,4.0,22,-99.99,,,-99.99,,2013-05-11 17:52:00,
2013-05-11 18:01:00,71.0,25.0,-100.00,SSE,151,3.0,5.0,17,-99.99,,,-99.99,,2013-05-11 18:01:00,
2013-05-11 18:11:00,72.0,29.0,-100.00,ESE,106,3.0,7.0,19,-99.99,,,-99.99,,2013-05-11 18:11:00,
2013-05-11 18:21:00,71.0,35.0,-100.00,North,353,11.0,15.0,26,-99.99,,,-99.99,,2013-05-11 18:21:00,
2013-05-11 18:32:00,67.0,22.0,-100.00,NNW,339,23.0,32.0,18,-99.99,,,-99.99,,2013-05-11 18:32:00,
2013-05-11 18:41:00,66.0,24.0,-100.00,WNW,286,18.0,23.0,20,-99.99,,,-99.99,,2013-05-11 18:41:00,
2013-05-11 19:02:00,68.0,29.0,-100.00,WNW,283,10.0,17.0,23,-99.99,,,-99.99,,2013-05-11 19:02:00,
2013-05-11 19:11:00,69.0,24.0,-100.00,WNW,294,8.0,14.0,18,-99.99,,,-99.99,,2013-05-11 19:11:00,
2013-05-11 19:21:00,70.0,30.0,-100.00,NNW,330,10.0,12.0,22,-99.99,,,-99.99,,2013-05-11 19:21:00,
2013-05-11 19:32:00,72.0,23.0,-100.00,NW,304,8.0,12.0,15,-99.99,,,-99.99,,2013-05-11 19:32:00,
2013-05-11 19:41:00,72.0,25.0,-100.00,NNW,329,8.0,13.0,17,-99.99,,,-99.99,,2013-05-11 19:41:00,
2013-05-11 20:01:00,72.0,25.0,-100.00,WNW,302,8.0,11.0,17,-99.99,,,-99.99,,2013-05-11 20:01:00,
2013-05-11 20:11:00,73.0,24.0,-100.00,WNW,302,9.0,12.0,16,-99.99,,,-99.99,,2013-05-11 20:11:00,
2013-05-11 20:32:00,74.0,27.0,-100.00,WNW,289,6.0,11.0,17,-99.99,,,-99.99,,2013-05-11 20:32:00,
2013-05-11 20:42:00,73.0,18.0,-100.00,West,279,3.0,8.0,11,-99.99,,,-99.99,,2013-05-11 20:42:00,
2013-05-11 21:01:00,74.0,25.0,-100.00,NW,306,7.0,8.0,16,-99.99,,,-99.99,,2013-05-11 21:01:00,
2013-05-11 21:11:00,74.0,26.0,-100.00,NW,309,12.0,15.0,16,-99.99,,,-99.99,,2013-05-11 21:11:00,
2013-05-11 21:21:00,74.0,25.0,-100.00,NW,312,5.0,10.0,16,-99.99,,,-99.99,,2013-05-11 21:21:00,
2013-05-11 21:33:00,75.0,28.0,-100.00,NW,321,11.0,14.0,17,-99.99,,,-99.99,,2013-05-11 21:33:00,
2013-05-11 21:43:00,74.0,26.0,-100.00,NNW,338,5.0,17.0,17,-99.99,,,-99.99,,2013-05-11 21:43:00,
2013-05-11 21:52:00,72.0,30.0,-100.00,NW,323,13.0,18.0,21,-99.99,,,-99.99,,2013-05-11 21:52:00,
2013-05-11 22:02:00,72.0,30.0,-100.00,NW,323,13.0,18.0,21,-99.99,,,-99.99,,2013-05-11 22:02:00,
2013-05-11 22:12:00,69.0,31.0,-100.00,NNW,341,25.0,41.0,24,-99.99,,,-99.99,,2013-05-11 22:12:00,
2013-05-11 22:33:00,67.0,32.0,-100.00,SSW,210,22.0,29.0,26,-99.99,,,-99.99,,2013-05-11 22:33:00,
2013-05-11 22:42:00,68.0,32.0,-100.00,SW,215,17.0,20.0,26,-99.99,,,-99.99,,2013-05-11 22:42:00,
2013-05-11 23:02:00,72.0,30.0,-100.00,SSW,198,5.0,11.0,21,-99.99,,,-99.99,,2013-05-11 23:02:00,
2013-05-11 23:11:00,72.0,31.0,-100.00,WSW,249,5.0,7.0,21,-99.99,,,-99.99,,2013-05-11 23:11:00,
2013-05-11 23:31:00,72.0,27.0,-100.00,NNW,348,8.0,13.0,17,-99.99,,,-99.99,,2013-05-11 23:31:00,
2013-05-11 23:42:00,73.0,27.0,-100.00,NNW,347,9.0,15.0,17,-99.99,,,-99.99,,2013-05-11 23:42:00,
2013-05-11 23:52:00,73.0,25.0,-100.00,NW,319,7.0,12.0,16,-99.99,,,-99.99,,2013-05-11 23:52:00,